Regional Weather Roundup
Issued by NWS

Home | Current Version | Previous Version | Text Only | Print | Product List | Glossary On
Versions: 1 2 3 4 5 6 7 8 9 10 11 12 13 14 15 16 17 18 19 20 21 22 23 24 25 26 27 28 29 30 31 32 33 34 35 36 37 38 39 40 41 42 43 44 45 46 47 48 49 50
361
ASUS44 KJAN 240603
RWRMS

MISSISSIPPI HOURLY WEATHER ROUNDUP
NATIONAL WEATHER SERVICE JACKSON MS
100 AM CDT TUE MAY 24 2016

NOTE: "FAIR: INDICATES FEW OR NO CLOUDS BELOW 12,000 FEET WITH NO
SIGNIFICANT WEATHER AND/OR OBSTRUCTIONS TO VISIBILITY.

MSZ001>002-007>008-010>013-018>021-025>028-034>036-240700-
NORTHWEST MISSISSIPPI

CITY           SKY/WX    TMP DP  RH WIND       PRES   REMARKS
BATESVILLE     FAIR      61  59  93 CALM      30.00R
CLARKSDALE     PTCLDY    70  57  64 SE6       29.97F
CLEVELAND      FAIR      69  58  67 S3        29.97S
GREENWOOD      PTCLDY    65  59  81 CALM      29.98S
6HR MIN TEMP:  64; 6HR MAX TEMP:  81;

GREENVILLE     PTCLDY    67  55  65 SE5       29.97S
6HR MIN TEMP:  67; 6HR MAX TEMP:  80;

OLIVE BRANCH   CLEAR     64  57  77 SE3       29.99S
OXFORD         FAIR      59  55  88 CALM      30.02R
TUNICA         PTCLDY    64  55  72 SE6       29.98F
WINONA         FAIR      61  60  96 CALM      30.00S
$$

MSZ003>006-009-014>017-022>024-029>033-037>039-240700-
NORTHEAST MISSISSIPPI

CITY           SKY/WX    TMP DP  RH WIND       PRES   REMARKS
COLUMBUS AFB   CLEAR     60  57  91 CALM      29.99F
6HR MIN TEMP:  58; 6HR MAX TEMP:  80;

GOLDN TRIANGLE CLEAR     63  55  77 SE3       30.00S
STARKVILLE     FAIR      59  55  88 CALM      30.00R
TUPELO         CLEAR     62  56  80 CALM      30.00S
6HR MIN TEMP:  62; 6HR MAX TEMP:  81;

$$

MSZ040-058-240700-
CENTRAL MISSISSIPPI

CITY           SKY/WX    TMP DP  RH WIND       PRES   REMARKS
JACKSON INTL   PTCLDY    65  58  78 SE3       30.00S
6HR MIN TEMP:  65; 6HR MAX TEMP:  79;

JACKSON HAWKNS PTCLDY    66  59  78 SE3       30.00F
6HR MIN TEMP:  65; 6HR MAX TEMP:  80;

MADISON        FAIR      63  61  94 CALM      29.99F
MERIDIAN KEY   CLOUDY    59  56  89 CALM      30.02S
6HR MIN TEMP:  59; 6HR MAX TEMP:  80;

MERIDIAN NAS   CLEAR     61  55  81 CALM      30.03R
6HR MIN TEMP:  61; 6HR MAX TEMP:  83;

VICKSBURG TVR  CLEAR     65  62  90 CALM      29.98F
6HR MIN TEMP:  65; 6HR MAX TEMP:  82;

VICKSBURG VKS  CLEAR     64  61  88 CALM      29.99S
$$

MSZ059>079-240700-
SOUTH MISSISSIPPI

CITY           SKY/WX    TMP DP  RH WIND       PRES   REMARKS
BROOKHAVEN     FAIR     N/A N/A N/A CALM      30.03S
COLUMBIA       FAIR      59  59 100 CALM      30.06S
HATTIESBURG    PTCLDY    64  60  87 CALM      30.03R
6HR MIN TEMP:  64; 6HR MAX TEMP:  83;

MCCOMB         CLEAR     65  60  84 CALM      30.03R
6HR MIN TEMP:  65; 6HR MAX TEMP:  80;

NATCHEZ        CLEAR     66  61  82 SE5       30.00F
6HR MIN TEMP:  64; 6HR MAX TEMP:  82;

PINE BELT      PTCLDY    61  55  82 CALM      30.04R
6HR MIN TEMP:  61; 6HR MAX TEMP:  81;

$$

MSZ080>082-240700-
COASTAL MISSISSIPPI

CITY           SKY/WX    TMP DP  RH WIND       PRES   REMARKS
BILOXI         NOT AVBL
PASCAGOULA     PTCLDY    59  59 100 CALM      30.02S
6HR MIN TEMP:  59; 6HR MAX TEMP:  78;

GULFPORT       CLEAR     66  61  84 CALM      30.00S
6HR MIN TEMP:  66; 6HR MAX TEMP:  79;

$$




USA.gov is the U.S. government's official web portal to all federal, state and local government web resources and services.